contact:dominique.lefevre@mio.osupytheas.fr, maurice.libes@osupytheas.fr, didier.mallarino@osupytheas.fr
Project:EMSO http://www.emso-fr.org/EMSO-France
Depth: 2436.0 m
Title:EMSO Ligure Ouest : Data MII capteur CSTAR
DateTime,Latitude,Longitude,Instrument_Serial,Reference_Counts,Signal_Counts,Corrected_Signal_raw_counts,Calculated_Beam_c_inverse_meters,Internal_thermistor_counts
DateTime,Latitude,Longitude,Instrument_Serial,Reference_Counts,Signal_Counts,Corrected_Signal_raw_counts,Calculated_Beam_c_inverse_meters,Internal_thermistor_counts
2023-04-14T00:01:46,42.805,6.029,CST-1368DR,4324,4763,11696,01.156,552
2023-04-14T00:04:48,42.805,6.029,CST-1368DR,4324,4762,11695,01.157,551
2023-04-14T00:07:49,42.805,6.029,CST-1368DR,4324,4753,11673,01.164,552
2023-04-14T00:10:51,42.805,6.029,CST-1368DR,4324,4765,11702,01.154,551
2023-04-14T00:13:52,42.805,6.029,CST-1368DR,4324,4761,11692,01.158,551
2023-04-14T00:16:54,42.805,6.029,CST-1368DR,4324,4760,11690,01.158,551
2023-04-14T00:19:56,42.805,6.029,CST-1368DR,4324,4761,11693,01.157,551
2023-04-14T00:22:57,42.805,6.029,CST-1368DR,4324,4762,11694,01.157,551
2023-04-14T00:25:59,42.805,6.029,CST-1368DR,4324,4763,11697,01.156,551
2023-04-14T00:29:00,42.805,6.029,CST-1368DR,4324,4759,11688,01.159,551
2023-04-14T00:32:02,42.805,6.029,CST-1368DR,4324,4759,11688,01.159,551
2023-04-14T00:35:03,42.805,6.029,CST-1368DR,4324,4762,11695,01.157,551
2023-04-14T00:38:05,42.805,6.029,CST-1368DR,4324,4760,11690,01.158,551
2023-04-14T00:41:07,42.805,6.029,CST-1368DR,4324,4759,11686,01.160,552
2023-04-14T00:44:08,42.805,6.029,CST-1368DR,4324,4764,11699,01.155,551
2023-04-14T00:47:10,42.805,6.029,CST-1368DR,4324,4762,11695,01.157,551
2023-04-14T00:50:11,42.805,6.029,CST-1368DR,4324,4761,11692,01.158,551
2023-04-14T00:53:13,42.805,6.029,CST-1368DR,4324,4759,11688,01.159,551
2023-04-14T00:56:15,42.805,6.029,CST-1368DR,4324,4764,11699,01.155,551
2023-04-14T00:59:16,42.805,6.029,CST-1368DR,4324,4761,11693,01.157,551
2023-04-14T01:02:18,42.805,6.029,CST-1368DR,4324,4759,11688,01.159,551
2023-04-14T01:05:19,42.805,6.029,CST-1368DR,4324,4760,11690,01.158,552
2023-04-14T01:08:21,42.805,6.029,CST-1368DR,4324,4762,11695,01.157,551
2023-04-14T01:11:22,42.805,6.029,CST-1368DR,4324,4760,11690,01.158,551
2023-04-14T01:14:24,42.805,6.029,CST-1368DR,4324,4759,11688,01.159,551
2023-04-14T01:17:26,42.805,6.029,CST-1368DR,4324,4761,11691,01.158,551
2023-04-14T01:20:27,42.805,6.029,CST-1368DR,4324,4762,11695,01.157,551
2023-04-14T01:23:29,42.805,6.029,CST-1368DR,4324,4763,11697,01.156,551
2023-04-14T01:26:30,42.805,6.029,CST-1368DR,4324,4760,11690,01.158,552
2023-04-14T01:29:32,42.805,6.029,CST-1368DR,4324,4762,11694,01.157,551
2023-04-14T01:32:33,42.805,6.029,CST-1368DR,4324,4763,11697,01.156,551
2023-04-14T01:35:35,42.805,6.029,CST-1368DR,4324,4762,11695,01.157,551
2023-04-14T01:38:37,42.805,6.029,CST-1368DR,4324,4763,11697,01.156,551
2023-04-14T01:41:38,42.805,6.029,CST-1368DR,4324,4762,11695,01.157,551
2023-04-14T01:44:40,42.805,6.029,CST-1368DR,4324,4763,11698,01.156,552
2023-04-14T01:47:41,42.805,6.029,CST-1368DR,4324,4762,11695,01.157,552
2023-04-14T01:50:43,42.805,6.029,CST-1368DR,4324,4762,11695,01.157,551
2023-04-14T01:53:45,42.805,6.029,CST-1368DR,4324,4762,11694,01.157,551
2023-04-14T01:56:46,42.805,6.029,CST-1368DR,4324,4764,11699,01.155,551
2023-04-14T01:59:48,42.805,6.029,CST-1368DR,4324,4764,11699,01.155,551
2023-04-14T02:02:49,42.805,6.029,CST-1368DR,4323,4762,11698,01.156,551
2023-04-14T02:05:51,42.805,6.029,CST-1368DR,4324,4764,11699,01.155,551
2023-04-14T02:08:52,42.805,6.029,CST-1368DR,4324,4762,11695,01.157,551
2023-04-14T02:11:54,42.805,6.029,CST-1368DR,4324,4761,11693,01.157,551
2023-04-14T02:14:56,42.805,6.029,CST-1368DR,4324,4762,11694,01.157,551
2023-04-14T02:17:57,42.805,6.029,CST-1368DR,4324,4761,11691,01.158,551
2023-04-14T02:20:59,42.805,6.029,CST-1368DR,4324,4764,11699,01.155,551
2023-04-14T02:24:00,42.805,6.029,CST-1368DR,4323,4764,11701,01.154,551
2023-04-14T02:27:02,42.805,6.029,CST-1368DR,4323,4764,11702,01.154,551
2023-04-14T02:30:04,42.805,6.029,CST-1368DR,4323,4765,11705,01.153,552
2023-04-14T02:33:05,42.805,6.029,CST-1368DR,4323,4762,11697,01.156,551
2023-04-14T02:36:07,42.805,6.029,CST-1368DR,4323,4761,11696,01.156,551
2023-04-14T02:39:08,42.805,6.029,CST-1368DR,4323,4765,11704,01.153,551
2023-04-14T02:42:10,42.805,6.029,CST-1368DR,4323,4764,11702,01.154,551
2023-04-14T02:45:11,42.805,6.029,CST-1368DR,4323,4762,11697,01.156,551
2023-04-14T02:48:13,42.805,6.029,CST-1368DR,4323,4763,11699,01.155,551
2023-04-14T02:51:15,42.805,6.029,CST-1368DR,4323,4756,11682,01.161,551
2023-04-14T02:54:16,42.805,6.029,CST-1368DR,4323,4763,11700,01.155,551
2023-04-14T02:57:18,42.805,6.029,CST-1368DR,4323,4764,11701,01.154,551
2023-04-14T03:00:19,42.805,6.029,CST-1368DR,4323,4763,11700,01.155,552
2023-04-14T03:03:21,42.805,6.029,CST-1368DR,4323,4764,11701,01.154,551
2023-04-14T03:06:22,42.805,6.029,CST-1368DR,4323,4763,11700,01.155,552
2023-04-14T03:09:24,42.805,6.029,CST-1368DR,4323,4761,11694,01.157,551
2023-04-14T03:12:26,42.805,6.029,CST-1368DR,4323,4763,11699,01.155,551
2023-04-14T03:15:27,42.805,6.029,CST-1368DR,4323,4763,11701,01.154,551
2023-04-14T03:18:29,42.805,6.029,CST-1368DR,4323,4762,11697,01.156,551
2023-04-14T03:21:30,42.805,6.029,CST-1368DR,4323,4761,11694,01.157,551
2023-04-14T03:24:32,42.805,6.029,CST-1368DR,4323,4764,11703,01.154,551
2023-04-14T03:27:34,42.805,6.029,CST-1368DR,4323,4762,11698,01.156,551
2023-04-14T03:30:35,42.805,6.029,CST-1368DR,4323,4763,11699,01.155,551
2023-04-14T03:33:37,42.805,6.029,CST-1368DR,4323,4761,11694,01.157,551
2023-04-14T03:36:38,42.805,6.029,CST-1368DR,4323,4758,11686,01.160,551
2023-04-14T03:39:40,42.805,6.029,CST-1368DR,4323,4762,11697,01.156,551
2023-04-14T03:42:41,42.805,6.029,CST-1368DR,4323,4759,11689,01.159,551
2023-04-14T03:45:43,42.805,6.029,CST-1368DR,4324,4763,11697,01.156,551
2023-04-14T03:48:45,42.805,6.029,CST-1368DR,4323,4764,11703,01.154,552
2023-04-14T03:51:46,42.805,6.029,CST-1368DR,4323,4763,11699,01.155,551
2023-04-14T03:54:48,42.805,6.029,CST-1368DR,4323,4761,11694,01.157,551
2023-04-14T03:57:49,42.805,6.029,CST-1368DR,4323,4763,11699,01.155,551
2023-04-14T04:00:51,42.805,6.029,CST-1368DR,4323,4762,11698,01.156,552
2023-04-14T04:03:52,42.805,6.029,CST-1368DR,4323,4763,11699,01.155,551
2023-04-14T04:06:54,42.805,6.029,CST-1368DR,4323,4761,11696,01.156,551
2023-04-14T04:09:56,42.805,6.029,CST-1368DR,4323,4762,11698,01.156,551
2023-04-14T04:12:57,42.805,6.029,CST-1368DR,4323,4764,11701,01.154,551
2023-04-14T04:15:59,42.805,6.029,CST-1368DR,4323,4762,11698,01.156,551
2023-04-14T04:19:00,42.805,6.029,CST-1368DR,4323,4761,11695,01.157,551
2023-04-14T04:22:02,42.805,6.029,CST-1368DR,4323,4764,11701,01.154,552
2023-04-14T04:25:03,42.805,6.029,CST-1368DR,4323,4763,11699,01.155,551
2023-04-14T04:28:05,42.805,6.029,CST-1368DR,4323,4759,11690,01.158,551
2023-04-14T04:31:09,42.805,6.029,CST-1368DR,4323,4762,11697,01.156,551
2023-04-14T04:34:10,42.805,6.029,CST-1368DR,4323,4763,11700,01.155,551
2023-04-14T04:37:12,42.805,6.029,CST-1368DR,4323,4763,11701,01.154,551
2023-04-14T04:40:13,42.805,6.029,CST-1368DR,4323,4761,11694,01.157,551
2023-04-14T04:43:15,42.805,6.029,CST-1368DR,4323,4763,11701,01.154,551
2023-04-14T04:46:17,42.805,6.029,CST-1368DR,4323,4759,11690,01.158,551
2023-04-14T04:49:18,42.805,6.029,CST-1368DR,4323,4762,11697,01.156,551
2023-04-14T04:52:20,42.805,6.029,CST-1368DR,4323,4759,11689,01.159,551
2023-04-14T04:55:21,42.805,6.029,CST-1368DR,4323,4763,11701,01.154,551
2023-04-14T04:58:23,42.805,6.029,CST-1368DR,4323,4762,11697,01.156,551
2023-04-14T05:01:25,42.805,6.029,CST-1368DR,4323,4758,11687,01.159,551
2023-04-14T05:04:26,42.805,6.029,CST-1368DR,4323,4759,11690,01.158,551
2023-04-14T05:07:28,42.805,6.029,CST-1368DR,4323,4763,11699,01.155,551
2023-04-14T05:10:29,42.805,6.029,CST-1368DR,4323,4762,11697,01.156,551
2023-04-14T05:13:31,42.805,6.029,CST-1368DR,4323,4761,11695,01.157,551
2023-04-14T05:16:32,42.805,6.029,CST-1368DR,4323,4757,11686,01.160,551
2023-04-14T05:19:34,42.805,6.029,CST-1368DR,4323,4760,11692,01.158,551
2023-04-14T05:22:36,42.805,6.029,CST-1368DR,4323,4760,11693,01.157,551
2023-04-14T05:25:37,42.805,6.029,CST-1368DR,4323,4761,11696,01.156,551
2023-04-14T05:28:39,42.805,6.029,CST-1368DR,4323,4761,11695,01.157,551
2023-04-14T05:31:40,42.805,6.029,CST-1368DR,4323,4762,11697,01.156,551
2023-04-14T05:34:42,42.805,6.029,CST-1368DR,4323,4762,11697,01.156,551
2023-04-14T05:37:43,42.805,6.029,CST-1368DR,4323,4759,11689,01.159,551
2023-04-14T05:40:45,42.805,6.029,CST-1368DR,4323,4760,11693,01.157,551
2023-04-14T05:43:47,42.805,6.029,CST-1368DR,4323,4762,11697,01.156,551
2023-04-14T05:46:48,42.805,6.029,CST-1368DR,4323,4761,11694,01.157,551
2023-04-14T05:49:50,42.805,6.029,CST-1368DR,4323,4757,11685,01.160,551
2023-04-14T05:52:51,42.805,6.029,CST-1368DR,4323,4761,11696,01.156,551
2023-04-14T05:55:53,42.805,6.029,CST-1368DR,4323,4763,11700,01.155,551
2023-04-14T05:58:55,42.805,6.029,CST-1368DR,4323,4760,11692,01.158,552
2023-04-14T06:01:56,42.805,6.029,CST-1368DR,4323,4761,11696,01.156,551
2023-04-14T06:04:58,42.805,6.029,CST-1368DR,4323,4762,11698,01.156,552
2023-04-14T06:07:59,42.805,6.029,CST-1368DR,4323,4761,11695,01.157,551
2023-04-14T06:11:01,42.805,6.029,CST-1368DR,4323,4760,11692,01.158,551
2023-04-14T06:14:02,42.805,6.029,CST-1368DR,4323,4761,11695,01.157,552
2023-04-14T06:17:04,42.805,6.029,CST-1368DR,4323,4764,11702,01.154,551
2023-04-14T06:20:06,42.805,6.029,CST-1368DR,4323,4759,11691,01.158,551
2023-04-14T06:23:07,42.805,6.029,CST-1368DR,4323,4760,11692,01.158,551
2023-04-14T06:26:09,42.805,6.029,CST-1368DR,4323,4761,11695,01.157,551
2023-04-14T06:29:10,42.805,6.029,CST-1368DR,4323,4760,11693,01.157,551
2023-04-14T06:32:12,42.805,6.029,CST-1368DR,4323,4762,11698,01.156,551
2023-04-14T06:35:13,42.805,6.029,CST-1368DR,4323,4760,11692,01.158,551
2023-04-14T06:38:15,42.805,6.029,CST-1368DR,4323,4762,11698,01.156,551
2023-04-14T06:41:17,42.805,6.029,CST-1368DR,4323,4762,11698,01.156,551
2023-04-14T06:44:18,42.805,6.029,CST-1368DR,4323,4761,11694,01.157,551
2023-04-14T06:47:20,42.805,6.029,CST-1368DR,4323,4762,11697,01.156,551
2023-04-14T06:50:21,42.805,6.029,CST-1368DR,4323,4764,11701,01.154,551
2023-04-14T06:53:23,42.805,6.029,CST-1368DR,4323,4762,11697,01.156,551
2023-04-14T06:56:25,42.805,6.029,CST-1368DR,4323,4763,11701,01.154,551
2023-04-14T06:59:26,42.805,6.029,CST-1368DR,4323,4761,11695,01.157,551
2023-04-14T07:02:28,42.805,6.029,CST-1368DR,4323,4761,11695,01.157,551
2023-04-14T07:05:29,42.805,6.029,CST-1368DR,4323,4761,11696,01.156,551
2023-04-14T07:08:31,42.805,6.029,CST-1368DR,4323,4761,11695,01.157,551
2023-04-14T07:11:32,42.805,6.029,CST-1368DR,4323,4760,11693,01.157,551
2023-04-14T07:14:34,42.805,6.029,CST-1368DR,4323,4762,11697,01.156,551
2023-04-14T07:17:36,42.805,6.029,CST-1368DR,4323,4761,11696,01.156,551
2023-04-14T07:20:37,42.805,6.029,CST-1368DR,4323,4762,11697,01.156,551
2023-04-14T07:23:39,42.805,6.029,CST-1368DR,4323,4762,11697,01.156,551
2023-04-14T07:26:40,42.805,6.029,CST-1368DR,4323,4763,11699,01.155,551
2023-04-14T07:29:42,42.805,6.029,CST-1368DR,4323,4760,11693,01.157,551
2023-04-14T07:32:43,42.805,6.029,CST-1368DR,4323,4760,11693,01.157,551
2023-04-14T07:35:45,42.805,6.029,CST-1368DR,4323,4761,11696,01.156,551
2023-04-14T07:38:47,42.805,6.029,CST-1368DR,4323,4762,11697,01.156,551
2023-04-14T07:41:48,42.805,6.029,CST-1368DR,4323,4754,11677,01.163,551
2023-04-14T07:44:50,42.805,6.029,CST-1368DR,4323,4761,11694,01.157,551
2023-04-14T07:47:51,42.805,6.029,CST-1368DR,4323,4763,11699,01.155,551
2023-04-14T07:50:53,42.805,6.029,CST-1368DR,4323,4761,11695,01.157,551
2023-04-14T07:53:55,42.805,6.029,CST-1368DR,4323,4758,11687,01.159,551
2023-04-14T07:56:56,42.805,6.029,CST-1368DR,4323,4762,11697,01.156,552
2023-04-14T07:59:58,42.805,6.029,CST-1368DR,4323,4763,11700,01.155,551
2023-04-14T08:02:59,42.805,6.029,CST-1368DR,4323,4762,11697,01.156,551
2023-04-14T08:06:01,42.805,6.029,CST-1368DR,4323,4761,11695,01.157,551
2023-04-14T08:09:02,42.805,6.029,CST-1368DR,4323,4762,11697,01.156,551
2023-04-14T08:12:04,42.805,6.029,CST-1368DR,4323,4753,11675,01.163,551
2023-04-14T08:15:06,42.805,6.029,CST-1368DR,4323,4762,11698,01.156,551
2023-04-14T08:18:07,42.805,6.029,CST-1368DR,4323,4759,11689,01.159,551
2023-04-14T08:21:09,42.805,6.029,CST-1368DR,4323,4761,11696,01.156,551
2023-04-14T08:24:10,42.805,6.029,CST-1368DR,4323,4763,11699,01.155,551
2023-04-14T08:27:12,42.805,6.029,CST-1368DR,4323,4763,11699,01.155,551
2023-04-14T08:30:16,42.805,6.029,CST-1368DR,4323,4760,11692,01.158,551
2023-04-14T08:33:18,42.805,6.029,CST-1368DR,4323,4758,11688,01.159,551
2023-04-14T08:36:20,42.805,6.029,CST-1368DR,4323,4761,11694,01.157,551
2023-04-14T08:39:21,42.805,6.029,CST-1368DR,4323,4762,11697,01.156,551
2023-04-14T08:42:23,42.805,6.029,CST-1368DR,4323,4762,11697,01.156,551
2023-04-14T08:45:24,42.805,6.029,CST-1368DR,4323,4757,11685,01.160,551
2023-04-14T08:48:26,42.805,6.029,CST-1368DR,4323,4761,11696,01.156,551
2023-04-14T08:51:27,42.805,6.029,CST-1368DR,4323,4760,11692,01.158,551
2023-04-14T08:54:29,42.805,6.029,CST-1368DR,4323,4761,11696,01.156,552
2023-04-14T08:57:31,42.805,6.029,CST-1368DR,4323,4758,11686,01.160,551
2023-04-14T09:00:32,42.805,6.029,CST-1368DR,4323,4760,11692,01.158,551
2023-04-14T09:03:34,42.805,6.029,CST-1368DR,4323,4760,11693,01.157,551
2023-04-14T09:06:35,42.805,6.029,CST-1368DR,4323,4760,11693,01.157,551
2023-04-14T09:09:37,42.805,6.029,CST-1368DR,4323,4760,11692,01.158,551
2023-04-14T09:12:39,42.805,6.029,CST-1368DR,4323,4763,11700,01.155,551
2023-04-14T09:15:40,42.805,6.029,CST-1368DR,4323,4761,11694,01.157,551
2023-04-14T09:18:42,42.805,6.029,CST-1368DR,4323,4759,11690,01.158,551
2023-04-14T09:21:43,42.805,6.029,CST-1368DR,4323,4763,11699,01.155,551
2023-04-14T09:24:45,42.805,6.029,CST-1368DR,4323,4762,11697,01.156,551
2023-04-14T09:27:46,42.805,6.029,CST-1368DR,4323,4758,11687,01.159,551
2023-04-14T09:30:48,42.805,6.029,CST-1368DR,4323,4759,11689,01.159,552
2023-04-14T09:33:50,42.805,6.029,CST-1368DR,4323,4763,11699,01.155,551
2023-04-14T09:36:51,42.805,6.029,CST-1368DR,4323,4761,11696,01.156,551
2023-04-14T09:39:53,42.805,6.029,CST-1368DR,4323,4760,11691,01.158,551
2023-04-14T09:42:54,42.805,6.029,CST-1368DR,4323,4759,11690,01.158,551
2023-04-14T09:45:56,42.805,6.029,CST-1368DR,4323,4763,11701,01.154,551
2023-04-14T09:48:57,42.805,6.029,CST-1368DR,4323,4762,11697,01.156,551
2023-04-14T09:51:59,42.805,6.029,CST-1368DR,4323,4760,11692,01.158,551
2023-04-14T09:55:01,42.805,6.029,CST-1368DR,4323,4760,11692,01.158,551
2023-04-14T09:58:02,42.805,6.029,CST-1368DR,4323,4761,11694,01.157,551
2023-04-14T10:01:04,42.805,6.029,CST-1368DR,4323,4761,11695,01.157,551
2023-04-14T10:04:05,42.805,6.029,CST-1368DR,4323,4759,11690,01.158,551
2023-04-14T10:07:07,42.805,6.029,CST-1368DR,4323,4761,11695,01.157,551
2023-04-14T10:10:08,42.805,6.029,CST-1368DR,4323,4762,11697,01.156,551
2023-04-14T10:13:10,42.805,6.029,CST-1368DR,4323,4761,11695,01.157,551
2023-04-14T10:16:12,42.805,6.029,CST-1368DR,4323,4759,11689,01.159,551
2023-04-14T10:19:13,42.805,6.029,CST-1368DR,4323,4761,11695,01.157,551
2023-04-14T10:22:15,42.805,6.029,CST-1368DR,4323,4762,11697,01.156,551
2023-04-14T10:25:16,42.805,6.029,CST-1368DR,4323,4761,11694,01.157,551
2023-04-14T10:28:18,42.805,6.029,CST-1368DR,4323,4758,11686,01.160,551
2023-04-14T10:31:20,42.805,6.029,CST-1368DR,4323,4762,11697,01.156,551
2023-04-14T10:34:21,42.805,6.029,CST-1368DR,4323,4761,11694,01.157,551
2023-04-14T10:37:23,42.805,6.029,CST-1368DR,4323,4760,11692,01.158,551
2023-04-14T10:40:24,42.805,6.029,CST-1368DR,4323,4759,11691,01.158,551
2023-04-14T10:43:26,42.805,6.029,CST-1368DR,4323,4762,11698,01.156,551
2023-04-14T10:46:27,42.805,6.029,CST-1368DR,4323,4761,11694,01.157,551
2023-04-14T10:49:29,42.805,6.029,CST-1368DR,4323,4758,11687,01.159,551
2023-04-14T10:52:31,42.805,6.029,CST-1368DR,4323,4761,11694,01.157,551
2023-04-14T10:55:32,42.805,6.029,CST-1368DR,4323,4762,11697,01.156,551
2023-04-14T10:58:34,42.805,6.029,CST-1368DR,4323,4761,11696,01.156,552
2023-04-14T11:01:35,42.805,6.029,CST-1368DR,4323,4759,11689,01.159,551
2023-04-14T11:04:37,42.805,6.029,CST-1368DR,4323,4763,11699,01.155,551
2023-04-14T11:07:39,42.805,6.029,CST-1368DR,4323,4763,11701,01.154,551
2023-04-14T11:10:40,42.805,6.029,CST-1368DR,4323,4761,11694,01.157,551
2023-04-14T11:13:42,42.805,6.029,CST-1368DR,4323,4756,11681,01.161,551
2023-04-14T11:16:43,42.805,6.029,CST-1368DR,4323,4763,11699,01.155,551
2023-04-14T11:19:45,42.805,6.029,CST-1368DR,4323,4751,11669,01.165,551
2023-04-14T11:22:46,42.805,6.029,CST-1368DR,4323,4750,11668,01.166,551
2023-04-14T11:25:48,42.805,6.029,CST-1368DR,4323,4750,11668,01.166,551
2023-04-14T11:28:50,42.805,6.029,CST-1368DR,4323,4753,11675,01.163,551
2023-04-14T11:31:51,42.805,6.029,CST-1368DR,4323,4749,11666,01.166,551
2023-04-14T11:34:53,42.805,6.029,CST-1368DR,4323,4751,11670,01.165,551
2023-04-14T11:37:54,42.805,6.029,CST-1368DR,4323,4750,11668,01.166,551
2023-04-14T11:40:56,42.805,6.029,CST-1368DR,4323,4753,11675,01.163,551
2023-04-14T11:43:57,42.805,6.029,CST-1368DR,4323,4751,11670,01.165,551
2023-04-14T11:46:59,42.805,6.029,CST-1368DR,4323,4750,11667,01.166,552
2023-04-14T11:50:01,42.805,6.029,CST-1368DR,4323,4752,11672,01.164,551
2023-04-14T11:53:02,42.805,6.029,CST-1368DR,4323,4754,11677,01.163,551
2023-04-14T11:56:04,42.805,6.029,CST-1368DR,4323,4753,11675,01.163,551
2023-04-14T11:59:05,42.805,6.029,CST-1368DR,4323,4752,11674,01.164,551
2023-04-14T12:02:07,42.805,6.029,CST-1368DR,4323,4754,11678,01.162,551
2023-04-14T12:05:09,42.805,6.029,CST-1368DR,4323,4753,11675,01.163,552
2023-04-14T12:08:10,42.805,6.029,CST-1368DR,4323,4754,11677,01.163,551
2023-04-14T12:11:12,42.805,6.029,CST-1368DR,4323,4752,11673,01.164,551
2023-04-14T12:14:13,42.805,6.029,CST-1368DR,4323,4753,11675,01.163,551
2023-04-14T12:17:15,42.805,6.029,CST-1368DR,4323,4754,11678,01.162,552
2023-04-14T12:20:16,42.805,6.029,CST-1368DR,4323,4754,11677,01.163,551
2023-04-14T12:23:18,42.805,6.029,CST-1368DR,4323,4753,11674,01.164,551
2023-04-14T12:26:20,42.805,6.029,CST-1368DR,4323,4753,11675,01.163,551
2023-04-14T12:29:21,42.805,6.029,CST-1368DR,4323,4754,11678,01.162,551
2023-04-14T12:32:23,42.805,6.029,CST-1368DR,4323,4753,11676,01.163,551
2023-04-14T12:35:24,42.805,6.029,CST-1368DR,4323,4754,11678,01.162,551
2023-04-14T12:38:26,42.805,6.029,CST-1368DR,4323,4753,11676,01.163,551
2023-04-14T12:41:27,42.805,6.029,CST-1368DR,4323,4752,11672,01.164,552
2023-04-14T12:44:29,42.805,6.029,CST-1368DR,4323,4754,11678,01.162,551
2023-04-14T12:47:31,42.805,6.029,CST-1368DR,4323,4753,11674,01.164,551
2023-04-14T12:50:32,42.805,6.029,CST-1368DR,4323,4753,11675,01.163,551
2023-04-14T12:53:34,42.805,6.029,CST-1368DR,4323,4754,11677,01.163,551
2023-04-14T12:56:35,42.805,6.029,CST-1368DR,4323,4755,11681,01.161,551
2023-04-14T12:59:37,42.805,6.029,CST-1368DR,4323,4754,11677,01.163,551
2023-04-14T13:02:39,42.805,6.029,CST-1368DR,4323,4751,11670,01.165,551
2023-04-14T13:05:40,42.805,6.029,CST-1368DR,4323,4755,11679,01.162,551
2023-04-14T13:08:42,42.805,6.029,CST-1368DR,4323,4753,11675,01.163,551
2023-04-14T13:11:43,42.805,6.029,CST-1368DR,4323,4752,11672,01.164,551
2023-04-14T13:14:45,42.805,6.029,CST-1368DR,4323,4754,11678,01.162,552
2023-04-14T13:17:46,42.805,6.029,CST-1368DR,4323,4754,11678,01.162,551
2023-04-14T13:20:48,42.805,6.029,CST-1368DR,4323,4754,11677,01.163,551
2023-04-14T13:23:50,42.805,6.029,CST-1368DR,4323,4752,11672,01.164,551
2023-04-14T13:26:51,42.805,6.029,CST-1368DR,4323,4754,11677,01.163,551
2023-04-14T13:29:53,42.805,6.029,CST-1368DR,4323,4752,11674,01.164,551
2023-04-14T13:32:54,42.805,6.029,CST-1368DR,4323,4751,11670,01.165,551
2023-04-14T13:35:56,42.805,6.029,CST-1368DR,4323,4753,11674,01.164,551
2023-04-14T13:38:57,42.805,6.029,CST-1368DR,4323,4756,11681,01.161,551
2023-04-14T13:41:59,42.805,6.029,CST-1368DR,4323,4754,11677,01.163,552
2023-04-14T13:45:01,42.805,6.029,CST-1368DR,4323,4750,11668,01.166,551
2023-04-14T13:48:02,42.805,6.029,CST-1368DR,4323,4733,11626,01.180,551
2023-04-14T13:51:04,42.805,6.029,CST-1368DR,4323,4754,11678,01.162,551
2023-04-14T13:54:05,42.805,6.029,CST-1368DR,4323,4756,11681,01.161,551
2023-04-14T13:57:07,42.805,6.029,CST-1368DR,4323,4755,11679,01.162,551
2023-04-14T14:00:09,42.805,6.029,CST-1368DR,4323,4754,11678,01.162,552
2023-04-14T14:03:10,42.805,6.029,CST-1368DR,4323,4754,11677,01.163,551
2023-04-14T14:06:12,42.805,6.029,CST-1368DR,4323,4753,11674,01.164,551
2023-04-14T14:09:13,42.805,6.029,CST-1368DR,4323,4756,11681,01.161,551
2023-04-14T14:12:15,42.805,6.029,CST-1368DR,4323,4756,11681,01.161,551
2023-04-14T14:15:16,42.805,6.029,CST-1368DR,4323,4753,11676,01.163,552
2023-04-14T14:18:18,42.805,6.029,CST-1368DR,4323,4754,11677,01.163,551
2023-04-14T14:21:20,42.805,6.029,CST-1368DR,4323,4754,11678,01.162,551
2023-04-14T14:24:21,42.805,6.029,CST-1368DR,4323,4755,11680,01.162,551
2023-04-14T14:27:23,42.805,6.029,CST-1368DR,4323,4755,11679,01.162,551
2023-04-14T14:30:25,42.805,6.029,CST-1368DR,4323,4756,11683,01.161,551
2023-04-14T14:33:27,42.805,6.029,CST-1368DR,4323,4756,11683,01.161,551
2023-04-14T14:36:28,42.805,6.029,CST-1368DR,4323,4757,11685,01.160,551
2023-04-14T14:39:30,42.805,6.029,CST-1368DR,4323,4758,11686,01.160,551
2023-04-14T14:42:31,42.805,6.029,CST-1368DR,4323,4756,11683,01.161,551
2023-04-14T14:45:33,42.805,6.029,CST-1368DR,4323,4755,11681,01.161,551
2023-04-14T14:48:34,42.805,6.029,CST-1368DR,4323,4756,11683,01.161,551
2023-04-14T14:51:36,42.805,6.029,CST-1368DR,4323,4757,11685,01.160,551
2023-04-14T14:54:38,42.805,6.029,CST-1368DR,4323,4755,11679,01.162,551
2023-04-14T14:57:39,42.805,6.029,CST-1368DR,4323,4757,11684,01.160,551
2023-04-14T15:00:41,42.805,6.029,CST-1368DR,4323,4744,11653,01.171,551
2023-04-14T15:03:42,42.805,6.029,CST-1368DR,4323,4756,11683,01.161,551
2023-04-14T15:06:44,42.805,6.029,CST-1368DR,4323,4754,11677,01.163,551
2023-04-14T15:09:45,42.805,6.029,CST-1368DR,4323,4749,11666,01.166,551
2023-04-14T15:12:47,42.805,6.029,CST-1368DR,4323,4755,11680,01.162,551
2023-04-14T15:15:49,42.805,6.029,CST-1368DR,4323,4755,11679,01.162,551
2023-04-14T15:18:50,42.805,6.029,CST-1368DR,4323,4756,11682,01.161,551
2023-04-14T15:21:52,42.805,6.029,CST-1368DR,4323,4754,11678,01.162,551
2023-04-14T15:24:53,42.805,6.029,CST-1368DR,4323,4756,11681,01.161,551
2023-04-14T15:27:55,42.805,6.029,CST-1368DR,4323,4754,11678,01.162,551
2023-04-14T15:30:57,42.805,6.029,CST-1368DR,4323,4753,11676,01.163,552
2023-04-14T15:33:58,42.805,6.029,CST-1368DR,4323,4756,11683,01.161,551
2023-04-14T15:37:00,42.805,6.029,CST-1368DR,4323,4756,11681,01.161,551
2023-04-14T15:40:01,42.805,6.029,CST-1368DR,4323,4756,11683,01.161,551
2023-04-14T15:43:03,42.805,6.029,CST-1368DR,4323,4755,11681,01.161,551
2023-04-14T15:46:04,42.805,6.029,CST-1368DR,4323,4757,11684,01.160,551
2023-04-14T15:49:06,42.805,6.029,CST-1368DR,4323,4756,11682,01.161,551
2023-04-14T15:52:08,42.805,6.029,CST-1368DR,4323,4755,11680,01.162,551
2023-04-14T15:55:09,42.805,6.029,CST-1368DR,4323,4754,11678,01.162,551
2023-04-14T15:58:11,42.805,6.029,CST-1368DR,4323,4757,11685,01.160,551
2023-04-14T16:01:12,42.805,6.029,CST-1368DR,4323,4755,11679,01.162,551
2023-04-14T16:04:14,42.805,6.029,CST-1368DR,4323,4751,11669,01.165,551
2023-04-14T16:07:15,42.805,6.029,CST-1368DR,4323,4749,11666,01.166,552
2023-04-14T16:10:17,42.805,6.029,CST-1368DR,4323,4754,11677,01.163,551
2023-04-14T16:13:19,42.805,6.029,CST-1368DR,4323,4753,11676,01.163,551
2023-04-14T16:16:20,42.805,6.029,CST-1368DR,4323,4756,11683,01.161,551
2023-04-14T16:19:22,42.805,6.029,CST-1368DR,4323,4756,11683,01.161,551
2023-04-14T16:22:23,42.805,6.029,CST-1368DR,4323,4756,11682,01.161,551
2023-04-14T16:25:25,42.805,6.029,CST-1368DR,4323,4753,11676,01.163,552
2023-04-14T16:28:27,42.805,6.029,CST-1368DR,4323,4751,11670,01.165,552
2023-04-14T16:31:28,42.805,6.029,CST-1368DR,4323,4755,11680,01.162,551
2023-04-14T16:34:30,42.805,6.029,CST-1368DR,4323,4755,11679,01.162,551
2023-04-14T16:37:31,42.805,6.029,CST-1368DR,4323,4756,11682,01.161,551